TimeCST,TemperatureF,Dew PointF,Humidity,Sea Level PressureIn,VisibilityMPH,Wind Direction,Wind SpeedMPH,Gust SpeedMPH,PrecipitationIn,Events,Conditions,WindDirDegrees,DateUTC
12:10 AM,37.4,30.2,75,29.69,10.0,South,9.2,-,N/A,,Clear,170,2009-01-09 06:10:00
12:30 AM,37.4,30.2,75,29.68,10.0,South,8.1,-,N/A,,Clear,170,2009-01-09 06:30:00
12:50 AM,39.2,30.2,70,29.67,10.0,South,9.2,-,N/A,,Clear,180,2009-01-09 06:50:00
1:10 AM,41.0,30.2,65,29.67,10.0,South,9.2,16.1,N/A,,Clear,180,2009-01-09 07:10:00
1:30 AM,39.2,30.2,70,29.67,10.0,South,8.1,-,N/A,,Clear,190,2009-01-09 07:30:00
1:50 AM,41.0,30.2,65,29.67,10.0,SSW,6.9,-,N/A,,Clear,200,2009-01-09 07:50:00
2:10 AM,41.0,30.2,65,29.67,10.0,SSW,11.5,-,N/A,,Clear,200,2009-01-09 08:10:00
2:30 AM,41.0,30.2,65,29.67,10.0,SSW,10.4,17.3,N/A,,Clear,200,2009-01-09 08:30:00
2:50 AM,41.0,30.2,65,29.67,10.0,SSW,9.2,-,N/A,,Clear,210,2009-01-09 08:50:00
3:10 AM,39.2,30.2,70,29.68,10.0,SSW,9.2,-,N/A,,Clear,200,2009-01-09 09:10:00
3:30 AM,37.4,30.2,75,29.68,10.0,SSW,6.9,-,N/A,,Clear,210,2009-01-09 09:30:00
3:50 AM,37.4,30.2,75,29.67,10.0,SSW,12.7,-,N/A,,Clear,200,2009-01-09 09:50:00
4:10 AM,37.4,30.2,75,29.66,10.0,SSW,11.5,-,N/A,,Clear,200,2009-01-09 10:10:00
4:30 AM,37.4,30.2,75,29.65,10.0,SSW,12.7,-,N/A,,Clear,200,2009-01-09 10:30:00
4:50 AM,37.4,30.2,75,29.65,10.0,SSW,10.4,-,N/A,,Clear,200,2009-01-09 10:50:00
5:10 AM,37.4,30.2,75,29.65,10.0,SSW,9.2,-,N/A,,Clear,200,2009-01-09 11:10:00
5:30 AM,37.4,30.2,75,29.65,10.0,SSW,8.1,-,N/A,,Clear,210,2009-01-09 11:30:00
5:50 AM,37.4,30.2,75,29.65,10.0,SSW,8.1,-,N/A,,Clear,210,2009-01-09 11:50:00
6:10 AM,37.4,30.2,75,29.66,10.0,SW,8.1,-,N/A,,Clear,220,2009-01-09 12:10:00
6:30 AM,35.6,30.2,81,29.65,10.0,SSW,5.8,-,N/A,,Clear,200,2009-01-09 12:30:00
6:50 AM,35.6,30.2,81,29.66,10.0,SSW,8.1,-,N/A,,Clear,210,2009-01-09 12:50:00
7:10 AM,33.8,30.2,87,29.67,10.0,SSW,4.6,-,N/A,,Clear,200,2009-01-09 13:10:00
7:30 AM,32.0,30.2,93,29.69,10.0,Calm,Calm,-,N/A,,Clear,0,2009-01-09 13:30:00
7:50 AM,32.0,30.2,93,29.70,10.0,Calm,Calm,-,N/A,,Clear,0,2009-01-09 13:50:00
8:10 AM,32.0,28.4,87,29.69,10.0,South,3.5,-,N/A,,Clear,190,2009-01-09 14:10:00
8:30 AM,33.8,30.2,87,29.69,10.0,South,3.5,-,N/A,,Clear,180,2009-01-09 14:30:00
8:50 AM,33.8,30.2,87,29.70,10.0,Calm,Calm,-,N/A,,Clear,0,2009-01-09 14:50:00
9:10 AM,37.4,32.0,81,29.71,10.0,Calm,Calm,-,N/A,,Clear,0,2009-01-09 15:10:00
9:30 AM,39.2,32.0,75,29.73,10.0,South,5.8,-,N/A,,Clear,190,2009-01-09 15:30:00
9:50 AM,41.0,32.0,70,29.73,10.0,SSW,3.5,-,N/A,,Clear,210,2009-01-09 15:50:00
10:10 AM,41.0,32.0,70,29.74,10.0,WSW,4.6,-,N/A,,Clear,240,2009-01-09 16:10:00
10:30 AM,42.8,32.0,66,29.75,10.0,Calm,Calm,-,N/A,,Clear,0,2009-01-09 16:30:00
10:50 AM,44.6,32.0,61,29.77,10.0,North,4.6,-,N/A,,Clear,350,2009-01-09 16:50:00
11:10 AM,44.6,32.0,61,29.78,10.0,North,10.4,-,N/A,,Clear,360,2009-01-09 17:10:00
11:30 AM,44.6,30.2,57,29.78,10.0,North,11.5,-,N/A,,Clear,10,2009-01-09 17:30:00
11:50 AM,44.6,30.2,57,29.79,10.0,North,19.6,23.0,N/A,,Clear,360,2009-01-09 17:50:00
12:10 PM,42.8,28.4,57,29.78,10.0,North,23.0,-,N/A,,Clear,360,2009-01-09 18:10:00
12:30 PM,41.0,26.6,57,29.78,10.0,North,24.2,29.9,N/A,,Clear,360,2009-01-09 18:30:00
12:50 PM,41.0,26.6,57,29.79,10.0,North,31.1,34.5,N/A,,Clear,350,2009-01-09 18:50:00
1:10 PM,39.2,24.8,56,29.80,10.0,North,26.5,34.5,N/A,,Clear,360,2009-01-09 19:10:00
1:30 PM,39.2,23.0,52,29.82,10.0,North,21.9,33.4,N/A,,Clear,10,2009-01-09 19:30:00
1:50 PM,37.4,23.0,56,29.83,10.0,North,26.5,33.4,N/A,,Clear,360,2009-01-09 19:50:00
2:10 PM,37.4,23.0,56,29.85,10.0,North,24.2,34.5,N/A,,Clear,360,2009-01-09 20:10:00
2:30 PM,37.4,23.0,56,29.85,10.0,North,26.5,36.8,N/A,,Clear,10,2009-01-09 20:30:00
2:50 PM,35.6,23.0,60,29.87,10.0,North,32.2,38.0,N/A,,Clear,360,2009-01-09 20:50:00
3:10 PM,35.6,21.2,56,29.89,10.0,North,31.1,36.8,N/A,,Clear,350,2009-01-09 21:10:00
3:30 PM,33.8,23.0,65,29.91,10.0,North,32.2,36.8,N/A,,Clear,360,2009-01-09 21:30:00
3:50 PM,32.0,23.0,69,29.93,10.0,North,31.1,38.0,N/A,,Clear,360,2009-01-09 21:50:00
4:10 PM,32.0,23.0,69,29.95,10.0,North,26.5,35.7,N/A,,Clear,350,2009-01-09 22:10:00
4:30 PM,32.0,23.0,69,29.98,10.0,North,31.1,38.0,N/A,,Mostly Cloudy,350,2009-01-09 22:30:00
4:50 PM,30.2,21.2,69,30.00,10.0,North,27.6,35.7,N/A,,Overcast,360,2009-01-09 22:50:00
5:10 PM,30.2,21.2,69,30.02,10.0,North,25.3,33.4,N/A,,Overcast,360,2009-01-09 23:10:00
5:30 PM,30.2,21.2,69,30.03,10.0,North,21.9,38.0,N/A,,Overcast,360,2009-01-09 23:30:00
5:50 PM,28.4,21.2,74,30.05,10.0,North,26.5,33.4,N/A,,Overcast,360,2009-01-09 23:50:00
6:10 PM,28.4,23.0,80,30.07,10.0,North,24.2,29.9,N/A,,Overcast,360,2009-01-10 00:10:00
6:30 PM,26.6,23.0,86,30.09,2.5,North,27.6,32.2,N/A,Snow,Light Snow,350,2009-01-10 00:30:00
6:50 PM,26.6,23.0,86,30.10,1.5,North,31.1,39.1,N/A,Snow,Light Snow,360,2009-01-10 00:50:00
7:10 PM,26.6,23.0,86,30.11,1.5,North,21.9,33.4,N/A,Snow,Light Snow,360,2009-01-10 01:10:00
7:30 PM,26.6,23.0,86,30.12,1.5,North,20.7,27.6,N/A,Snow,Light Snow,350,2009-01-10 01:30:00
7:50 PM,24.8,23.0,93,30.13,1.5,North,20.7,-,N/A,Snow,Light Snow,350,2009-01-10 01:50:00
8:10 PM,23.0,21.2,93,30.15,1.8,North,26.5,32.2,N/A,Snow,Light Snow,350,2009-01-10 02:10:00
8:30 PM,23.0,19.4,86,30.15,2.0,NNW,23.0,-,N/A,Snow,Light Snow,340,2009-01-10 02:30:00
8:50 PM,23.0,19.4,86,30.16,2.5,NNW,25.3,-,N/A,Snow,Light Snow,340,2009-01-10 02:50:00
9:10 PM,23.0,19.4,86,30.17,3.0,NNW,19.6,27.6,N/A,Snow,Light Snow,330,2009-01-10 03:10:00
9:30 PM,21.2,17.6,86,30.18,5.0,NNW,21.9,27.6,N/A,Snow,Light Snow,330,2009-01-10 03:30:00
9:50 PM,21.2,17.6,86,30.18,7.0,NNW,21.9,27.6,N/A,,Overcast,330,2009-01-10 03:50:00
10:10 PM,21.2,15.8,80,30.19,7.0,NNW,23.0,26.5,N/A,Snow,Light Snow,330,2009-01-10 04:10:00
10:30 PM,21.2,15.8,80,30.18,5.0,NNW,18.4,31.1,N/A,,Haze,340,2009-01-10 04:30:00
10:50 PM,21.2,15.8,80,30.20,10.0,NNW,24.2,27.6,N/A,,Overcast,340,2009-01-10 04:50:00
11:10 PM,21.2,15.8,80,30.19,7.0,NNW,24.2,29.9,N/A,,Overcast,340,2009-01-10 05:10:00
11:30 PM,21.2,15.8,80,30.20,10.0,NNW,20.7,28.8,N/A,,Overcast,340,2009-01-10 05:30:00
11:50 PM,21.2,15.8,80,30.20,10.0,NNW,21.9,-,N/A,,Overcast,340,2009-01-10 05:50:00